Find XM-3

NORAD ID: 28626 Int'l Des: 2005-008 Owner: XMR Country: US operational
HEOCIRCULAR

リアルタイム位置

3D地球を読み込み中...

XM-3について

説明を読み込み中...

次回通過

Passes for default location (London). Set your location on the main map for personalized predictions.

高度履歴

Loading altitude history...

軌道要素

1 28626U 05008A 26104.92128046 .00000058 00000-0 00000-0 0 9995
2 28626 0.4941 83.5984 0006860 318.9025 21.9822 0.98953985 41969
Epoch: Apr 14, 2026 • Age: 8 hours

現在のステータス

高度 36184.2 km
速度 3.06 km/s
衛星直下点 0.46°N, 111.9°W
打ち上げ日 Mar 1, 2005
運用期間 21.1 years
タイプ other

技術仕様

分類 Payload
質量 4682.00 kg
乾燥質量 2500.00 kg
総質量 4682.00 kg
長さ 7.00 m
直径 3.30 m
スパン 40.40 m
形状 Box + 2 Pan
製造者 BOES
バスタイプ BSS-702HP
フェーズステータス In Orbit
所有者/国 XMR/US

Most Searched